BAW794 EGLL-LJLJ

Flight info

Callsign BAW794
Flight time 1h 42m
Altitude 37000
Route DET2F DET L6 DVR L9 KONAN UL607 FERDI DCT REMBA DCT LIRSU DCT LALMI DCT ABTAL DCT LATLO DCT OBEDI DCT LUMUS LUMUS4L
Aircraft A320/M-SDE3FGHIKRWXY/S

Departure

Time 2026-04-18 10:49
Airport London Heathrow Airport (EGLL)

Arrival

Time 2026-04-18 12:32
Airport Ljubljana Jože Pučnik Airport (LJLJ)
Time Latitude Longitude Altitude Speed Heading
2026-04-18 10:07 51.46986 -0.47015 89 ft 0 kts 269°
2026-04-18 10:35 51.46986 -0.46992 89 ft 4 kts 269°
2026-04-18 10:35 51.46986 -0.46949 87 ft 4 kts 269°
2026-04-18 10:35 51.46986 -0.46906 86 ft 4 kts 270°
2026-04-18 10:36 51.46981 -0.46872 86 ft 4 kts 328°
2026-04-18 10:36 51.46958 -0.46863 86 ft 3 kts 359°
2026-04-18 10:36 51.46938 -0.46863 89 ft 2 kts 359°
2026-04-18 10:36 51.46937 -0.46863 89 ft 0 kts 359°
2026-04-18 10:40 51.46946 -0.46863 86 ft 2 kts 359°
2026-04-18 10:41 51.46971 -0.46863 86 ft 5 kts 359°
2026-04-18 10:41 51.47014 -0.46863 86 ft 8 kts 359°
2026-04-18 10:41 51.47076 -0.46864 86 ft 10 kts 359°
2026-04-18 10:41 51.47156 -0.46865 86 ft 13 kts 359°
2026-04-18 10:42 51.47253 -0.46866 86 ft 15 kts 359°
2026-04-18 10:42 51.47349 -0.46866 86 ft 14 kts 360°
2026-04-18 10:42 51.47423 -0.46884 87 ft 10 kts 348°
2026-04-18 10:42 51.47503 -0.46914 89 ft 13 kts 346°
2026-04-18 10:43 51.47574 -0.46911 89 ft 10 kts 39°
2026-04-18 10:43 51.47591 -0.46795 86 ft 12 kts 87°
2026-04-18 10:43 51.47592 -0.46654 86 ft 14 kts 89°
2026-04-18 10:43 51.47592 -0.46486 86 ft 16 kts 89°
2026-04-18 10:44 51.47593 -0.46298 86 ft 18 kts 89°
2026-04-18 10:44 51.47594 -0.46089 87 ft 20 kts 89°
2026-04-18 10:44 51.47596 -0.45853 86 ft 22 kts 91°
2026-04-18 10:44 51.47596 -0.45613 90 ft 21 kts 90°
2026-04-18 10:45 51.47597 -0.45362 86 ft 23 kts 90°
2026-04-18 10:45 51.47598 -0.45090 86 ft 25 kts 90°
2026-04-18 10:45 51.47599 -0.44794 86 ft 28 kts 89°
2026-04-18 10:45 51.47599 -0.44477 86 ft 27 kts 89°
2026-04-18 10:46 51.47592 -0.44254 87 ft 20 kts 95°
2026-04-18 10:46 51.47592 -0.44061 86 ft 13 kts 90°
2026-04-18 10:46 51.47592 -0.43944 86 ft 6 kts 90°
2026-04-18 10:46 51.47592 -0.43866 86 ft 7 kts 90°
2026-04-18 10:47 51.47604 -0.43783 89 ft 8 kts 56°
2026-04-18 10:47 51.47661 -0.43776 87 ft 8 kts 329°
2026-04-18 10:47 51.47716 -0.43834 88 ft 8 kts 328°
2026-04-18 10:47 51.47764 -0.43894 85 ft 8 kts 301°
2026-04-18 10:48 51.47767 -0.43953 87 ft 6 kts 269°
2026-04-18 10:48 51.47766 -0.44090 85 ft 30 kts 270°
2026-04-18 10:48 51.47765 -0.44799 89 ft 93 kts 270°
2026-04-18 10:48 51.47761 -0.46124 87 ft 142 kts 270°
2026-04-18 10:49 51.47747 -0.47860 395 ft 155 kts 271°
2026-04-18 10:49 51.47731 -0.49555 1128 ft 151 kts 271°
2026-04-18 10:49 51.47711 -0.51241 1779 ft 151 kts 270°
2026-04-18 10:49 51.47593 -0.52927 2276 ft 156 kts 252°
2026-04-18 10:50 51.47036 -0.54432 2823 ft 161 kts 231°
2026-04-18 10:50 51.46104 -0.55507 3283 ft 174 kts 208°
2026-04-18 10:50 51.44826 -0.55857 3518 ft 203 kts 176°
2026-04-18 10:50 51.43439 -0.54957 3757 ft 233 kts 142°
2026-04-18 10:51 51.42194 -0.53071 4144 ft 258 kts 137°
2026-04-18 10:51 51.40860 -0.50989 4761 ft 273 kts 137°
2026-04-18 10:51 51.39487 -0.48848 5645 ft 278 kts 138°
2026-04-18 10:51 51.38091 -0.46676 6490 ft 282 kts 138°
2026-04-18 10:52 51.36669 -0.44471 7305 ft 286 kts 139°
2026-04-18 10:52 51.35227 -0.42245 8127 ft 290 kts 140°
2026-04-18 10:52 51.33767 -0.39999 8952 ft 293 kts 140°
2026-04-18 10:52 51.32299 -0.37722 9777 ft 296 kts 137°
2026-04-18 10:53 51.31221 -0.34910 10482 ft 311 kts 110°
2026-04-18 10:53 51.30881 -0.31349 10721 ft 338 kts 92°
2026-04-18 10:53 51.30999 -0.27464 10920 ft 360 kts 85°
2026-04-18 10:53 51.31279 -0.23427 11448 ft 369 kts 85°
2026-04-18 10:54 51.31531 -0.19311 12068 ft 374 kts 87°
2026-04-18 10:54 51.31641 -0.16550 12486 ft 377 kts 89°
2026-04-18 10:54 51.31711 -0.12338 13121 ft 382 kts 92°
2026-04-18 10:54 51.31686 -0.08068 13757 ft 386 kts 94°
2026-04-18 10:55 51.31605 -0.03751 14354 ft 391 kts 95°
2026-04-18 10:55 51.31500 0.00621 14854 ft 395 kts 95°
2026-04-18 10:55 51.31397 0.05020 15414 ft 398 kts 95°
2026-04-18 10:55 51.31303 0.09458 15956 ft 401 kts 94°
2026-04-18 10:56 51.31219 0.13933 16492 ft 405 kts 94°
2026-04-18 10:56 51.31144 0.18453 17028 ft 409 kts 94°
2026-04-18 10:56 51.31073 0.23020 17592 ft 413 kts 94°
2026-04-18 10:56 51.31002 0.27624 18164 ft 416 kts 94°
2026-04-18 10:57 51.30928 0.32268 18686 ft 420 kts 94°
2026-04-18 10:57 51.30845 0.36960 19200 ft 423 kts 94°
2026-04-18 10:57 51.30756 0.41685 19725 ft 427 kts 94°
2026-04-18 10:57 51.30663 0.46452 20258 ft 431 kts 94°
2026-04-18 10:58 51.30566 0.51263 20805 ft 434 kts 94°
2026-04-18 10:58 51.30467 0.56100 21360 ft 437 kts 95°
2026-04-18 10:58 51.30113 0.60915 21867 ft 437 kts 105°
2026-04-18 10:58 51.29348 0.65542 22349 ft 437 kts 110°
2026-04-18 10:59 51.28484 0.70224 22836 ft 441 kts 110°
2026-04-18 10:59 51.27617 0.74934 23321 ft 444 kts 110°
2026-04-18 10:59 51.26742 0.79690 23776 ft 447 kts 110°
2026-04-18 10:59 51.25863 0.84474 24190 ft 450 kts 110°
2026-04-18 11:00 51.24982 0.89285 24600 ft 453 kts 110°
2026-04-18 11:00 51.24092 0.94125 25032 ft 456 kts 110°
2026-04-18 11:00 51.23190 0.98989 25384 ft 458 kts 110°
2026-04-18 11:00 51.22279 1.03882 25750 ft 461 kts 111°
2026-04-18 11:01 51.21359 1.08794 26104 ft 464 kts 111°
2026-04-18 11:01 51.20428 1.13744 26456 ft 466 kts 111°
2026-04-18 11:01 51.19495 1.18711 26798 ft 469 kts 111°
2026-04-18 11:02 51.17619 1.28680 27480 ft 474 kts 111°
2026-04-18 11:02 51.16694 1.33750 27813 ft 478 kts 108°
2026-04-18 11:02 51.16117 1.39021 28140 ft 486 kts 98°
2026-04-18 11:02 51.15864 1.44408 28434 ft 489 kts 97°
2026-04-18 11:03 51.15612 1.49832 28705 ft 493 kts 98°
2026-04-18 11:03 51.15350 1.55296 29009 ft 496 kts 98°
2026-04-18 11:03 51.15080 1.60804 29315 ft 499 kts 98°
2026-04-18 11:03 51.14804 1.66324 29617 ft 502 kts 98°
2026-04-18 11:04 51.14521 1.71864 30007 ft 502 kts 98°
2026-04-18 11:04 51.14237 1.77401 30425 ft 502 kts 98°
2026-04-18 11:04 51.13953 1.82933 30816 ft 501 kts 98°
2026-04-18 11:04 51.13676 1.88392 31240 ft 499 kts 98°
2026-04-18 11:05 51.13396 1.93901 31591 ft 499 kts 99°
2026-04-18 11:05 51.13115 1.99398 31992 ft 498 kts 99°
2026-04-18 11:05 51.12830 2.04896 32428 ft 496 kts 99°
2026-04-18 11:05 51.12543 2.10361 32880 ft 494 kts 99°
2026-04-18 11:06 51.12251 2.15804 33349 ft 492 kts 99°
2026-04-18 11:06 51.11954 2.21223 33814 ft 490 kts 99°
2026-04-18 11:06 51.11655 2.26611 34272 ft 488 kts 99°
2026-04-18 11:06 51.11357 2.31969 34646 ft 486 kts 99°
2026-04-18 11:07 51.11059 2.37324 34948 ft 485 kts 99°
2026-04-18 11:07 51.10761 2.42665 35259 ft 485 kts 99°
2026-04-18 11:07 51.10460 2.48004 35568 ft 484 kts 99°
2026-04-18 11:07 51.10157 2.53325 35880 ft 483 kts 99°
2026-04-18 11:08 51.09849 2.58659 36182 ft 482 kts 99°
2026-04-18 11:08 51.09506 2.63896 36476 ft 479 kts 103°
2026-04-18 11:08 51.08786 2.69035 36756 ft 473 kts 111°
2026-04-18 11:08 51.07870 2.74062 37029 ft 473 kts 110°
2026-04-18 11:09 51.06954 2.79086 37210 ft 473 kts 110°
2026-04-18 11:09 51.06030 2.84142 37225 ft 478 kts 111°
2026-04-18 11:09 51.04168 2.94340 37248 ft 480 kts 110°
2026-04-18 11:10 51.02325 3.04459 37242 ft 480 kts 110°
2026-04-18 11:10 51.00455 3.14634 37244 ft 480 kts 111°
2026-04-18 11:11 50.98567 3.24792 37239 ft 480 kts 111°
2026-04-18 11:11 50.96674 3.34948 37227 ft 480 kts 111°
2026-04-18 11:12 50.94769 3.45108 37237 ft 480 kts 111°
2026-04-18 11:12 50.92861 3.55257 37245 ft 480 kts 111°
2026-04-18 11:13 50.90940 3.65398 37252 ft 480 kts 111°
2026-04-18 11:13 50.89027 3.75464 37253 ft 480 kts 111°
2026-04-18 11:14 50.87094 3.85581 37242 ft 480 kts 112°
2026-04-18 11:14 50.85153 3.95692 37243 ft 480 kts 112°
2026-04-18 11:15 50.83200 4.05784 37242 ft 480 kts 112°
2026-04-18 11:15 50.81230 4.15885 37240 ft 480 kts 112°
2026-04-18 11:16 50.79258 4.25967 37207 ft 480 kts 112°
2026-04-18 11:16 50.77295 4.35996 37212 ft 480 kts 112°
2026-04-18 11:17 50.75309 4.46075 37221 ft 480 kts 112°
2026-04-18 11:17 50.73307 4.56145 37228 ft 481 kts 112°
2026-04-18 11:18 50.71295 4.66204 37225 ft 480 kts 112°
2026-04-18 11:18 50.69277 4.76266 37228 ft 481 kts 112°
2026-04-18 11:19 50.67247 4.86304 37222 ft 480 kts 112°
2026-04-18 11:19 50.64855 4.95995 37223 ft 475 kts 120°
2026-04-18 11:20 50.62027 5.05388 37222 ft 475 kts 121°
2026-04-18 11:20 50.59188 5.14777 37199 ft 475 kts 121°
2026-04-18 11:21 50.56346 5.24158 37197 ft 475 kts 121°
2026-04-18 11:21 50.53491 5.33537 37204 ft 475 kts 121°
2026-04-18 11:22 50.50683 5.42751 37195 ft 475 kts 121°
2026-04-18 11:22 50.47819 5.52108 37207 ft 475 kts 121°
2026-04-18 11:23 50.44948 5.61445 37207 ft 475 kts 121°
2026-04-18 11:23 50.42073 5.70787 37220 ft 475 kts 121°
2026-04-18 11:24 50.39186 5.80110 37227 ft 475 kts 121°
2026-04-18 11:24 50.36288 5.89416 37227 ft 475 kts 121°
2026-04-18 11:25 50.33404 5.98640 37219 ft 474 kts 121°
2026-04-18 11:25 50.30506 6.07904 37211 ft 473 kts 121°
2026-04-18 11:26 50.27602 6.17141 37207 ft 472 kts 121°
2026-04-18 11:26 50.24693 6.26350 37183 ft 472 kts 121°
2026-04-18 11:27 50.21787 6.35541 37190 ft 471 kts 121°
2026-04-18 11:27 50.18872 6.44703 37166 ft 471 kts 121°
2026-04-18 11:28 50.15899 6.53738 37175 ft 471 kts 122°
2026-04-18 11:28 50.12817 6.62739 37187 ft 471 kts 123°
2026-04-18 11:29 50.09720 6.71742 37193 ft 471 kts 122°
2026-04-18 11:29 50.06640 6.80736 37194 ft 471 kts 122°
2026-04-18 11:30 50.03570 6.89731 37174 ft 471 kts 122°
2026-04-18 11:30 50.00510 6.98656 37202 ft 471 kts 122°
2026-04-18 11:31 49.97417 7.07628 37178 ft 471 kts 122°
2026-04-18 11:31 49.94317 7.16595 37201 ft 471 kts 122°
2026-04-18 11:32 49.91202 7.25554 37199 ft 471 kts 122°
2026-04-18 11:32 49.88098 7.34481 37189 ft 470 kts 122°
2026-04-18 11:33 49.84984 7.43396 37200 ft 470 kts 122°
2026-04-18 11:33 49.81860 7.52303 37203 ft 470 kts 122°
2026-04-18 11:34 49.78750 7.61129 37206 ft 470 kts 122°
2026-04-18 11:34 49.75623 7.69993 37184 ft 469 kts 122°
2026-04-18 11:35 49.72484 7.78849 37190 ft 469 kts 122°
2026-04-18 11:35 49.69346 7.87674 37175 ft 469 kts 122°
2026-04-18 11:36 49.66198 7.96494 37184 ft 469 kts 122°
2026-04-18 11:36 49.64105 8.02325 37188 ft 469 kts 122°
2026-04-18 11:38 49.61797 8.08660 37198 ft 470 kts 122°
2026-04-18 11:38 49.58621 8.17469 37200 ft 469 kts 122°
2026-04-18 11:39 49.55475 8.26260 37207 ft 468 kts 122°
2026-04-18 11:39 49.52318 8.35020 37198 ft 467 kts 122°
2026-04-18 11:40 49.49155 8.43730 37195 ft 466 kts 122°
2026-04-18 11:40 49.45982 8.52426 37213 ft 466 kts 122°
2026-04-18 11:41 49.42824 8.61055 37212 ft 466 kts 122°
2026-04-18 11:41 49.39638 8.69729 37198 ft 466 kts 122°
2026-04-18 11:42 49.36982 8.76937 37196 ft 466 kts 122°
2026-04-18 11:42 49.33779 8.85583 37194 ft 466 kts 122°
2026-04-18 11:43 49.30537 8.94194 37182 ft 466 kts 122°
2026-04-18 11:43 49.27274 9.02765 37186 ft 466 kts 123°
2026-04-18 11:44 49.24002 9.11356 37188 ft 466 kts 123°
2026-04-18 11:44 49.20743 9.19919 37187 ft 465 kts 123°
2026-04-18 11:45 49.17473 9.28476 37189 ft 465 kts 123°
2026-04-18 11:45 49.14216 9.36948 37169 ft 465 kts 122°
2026-04-18 11:46 49.10922 9.45497 37169 ft 465 kts 122°
2026-04-18 11:46 49.07636 9.54010 37173 ft 466 kts 122°
2026-04-18 11:47 49.04344 9.62500 37182 ft 466 kts 122°
2026-04-18 11:47 49.01049 9.70969 37184 ft 466 kts 122°
2026-04-18 11:48 48.97739 9.79454 37176 ft 466 kts 122°
2026-04-18 11:48 48.94416 9.87954 37180 ft 466 kts 122°
2026-04-18 11:49 48.91105 9.96395 37186 ft 467 kts 122°
2026-04-18 11:49 48.87766 10.04859 37194 ft 467 kts 122°
2026-04-18 11:50 48.84411 10.13319 37195 ft 467 kts 123°
2026-04-18 11:50 48.80980 10.21650 37198 ft 467 kts 124°
2026-04-18 11:51 48.77481 10.30001 37212 ft 468 kts 124°
2026-04-18 11:51 48.74001 10.38340 37216 ft 468 kts 124°
2026-04-18 11:52 48.70539 10.46646 37217 ft 468 kts 124°
2026-04-18 11:52 48.67044 10.54997 37210 ft 469 kts 124°
2026-04-18 11:53 48.63550 10.63314 37210 ft 469 kts 124°
2026-04-18 11:53 48.60043 10.71662 37205 ft 470 kts 124°
2026-04-18 11:54 48.56527 10.79989 37196 ft 470 kts 124°
2026-04-18 11:54 48.53017 10.88265 37213 ft 470 kts 124°
2026-04-18 11:55 48.49462 10.96620 37206 ft 471 kts 124°
2026-04-18 11:55 48.45932 11.04903 37215 ft 471 kts 124°
2026-04-18 11:56 48.42397 11.13168 37205 ft 470 kts 124°
2026-04-18 11:56 48.38850 11.21433 37202 ft 470 kts 124°
2026-04-18 11:57 48.35293 11.29701 37200 ft 470 kts 124°
2026-04-18 11:57 48.31732 11.37946 37204 ft 470 kts 124°
2026-04-18 11:58 48.28162 11.46199 37204 ft 471 kts 124°
2026-04-18 11:58 48.24609 11.54387 37206 ft 471 kts 124°
2026-04-18 11:59 48.21019 11.62616 37215 ft 471 kts 124°
2026-04-18 11:59 48.17431 11.70829 37205 ft 471 kts 124°
2026-04-18 12:00 48.13835 11.79031 37194 ft 471 kts 124°
2026-04-18 12:00 48.10227 11.87229 37193 ft 471 kts 124°
2026-04-18 12:01 48.04818 11.99504 37195 ft 471 kts 124°
2026-04-18 12:02 48.01206 12.07689 37177 ft 471 kts 124°
2026-04-18 12:02 47.97604 12.15790 37182 ft 471 kts 124°
2026-04-18 12:03 47.93963 12.23930 37185 ft 471 kts 124°
2026-04-18 12:03 47.90332 12.32061 37188 ft 471 kts 124°
2026-04-18 12:04 47.86700 12.40187 37187 ft 471 kts 124°
2026-04-18 12:04 47.83054 12.48305 37186 ft 471 kts 124°
2026-04-18 12:05 47.79401 12.56389 37185 ft 471 kts 124°
2026-04-18 12:05 47.75744 12.64474 37179 ft 471 kts 124°
2026-04-18 12:06 47.72079 12.72540 37177 ft 471 kts 124°
2026-04-18 12:06 47.68330 12.80523 37170 ft 470 kts 130°
2026-04-18 12:07 47.63795 12.87501 37183 ft 470 kts 136°
2026-04-18 12:07 47.59190 12.94287 37132 ft 470 kts 136°
2026-04-18 12:07 47.56869 12.97704 36859 ft 469 kts 136°
2026-04-18 12:08 47.54554 13.01109 36597 ft 469 kts 136°
2026-04-18 12:08 47.52236 13.04518 36330 ft 469 kts 136°
2026-04-18 12:08 47.49920 13.07925 36089 ft 471 kts 136°
2026-04-18 12:08 47.47592 13.11350 35843 ft 471 kts 136°
2026-04-18 12:09 47.45265 13.14766 35587 ft 472 kts 136°
2026-04-18 12:09 47.42933 13.18182 35338 ft 472 kts 136°
2026-04-18 12:09 47.40599 13.21593 35091 ft 473 kts 136°
2026-04-18 12:09 47.38263 13.25007 34760 ft 473 kts 136°
2026-04-18 12:10 47.35903 13.28446 33734 ft 481 kts 136°
2026-04-18 12:10 47.33517 13.31907 32828 ft 482 kts 137°
2026-04-18 12:10 47.30942 13.35077 32065 ft 481 kts 144°
2026-04-18 12:10 47.28309 13.38056 31583 ft 474 kts 143°
2026-04-18 12:11 47.25711 13.41013 31000 ft 471 kts 143°
2026-04-18 12:11 47.23131 13.43957 30438 ft 468 kts 143°
2026-04-18 12:11 47.20566 13.46880 29808 ft 464 kts 143°
2026-04-18 12:11 47.18029 13.49763 29265 ft 458 kts 143°
2026-04-18 12:12 47.15518 13.52601 28703 ft 453 kts 143°
2026-04-18 12:12 47.13030 13.55405 28149 ft 448 kts 143°
2026-04-18 12:12 47.10568 13.58180 27600 ft 444 kts 143°
2026-04-18 12:12 47.08128 13.60928 27065 ft 441 kts 143°
2026-04-18 12:13 47.05705 13.63658 26513 ft 438 kts 143°
2026-04-18 12:13 47.03301 13.66368 26010 ft 435 kts 143°
2026-04-18 12:13 47.00904 13.69062 25479 ft 433 kts 142°
2026-04-18 12:13 46.98519 13.71741 24982 ft 431 kts 142°
2026-04-18 12:14 46.96148 13.74399 24478 ft 428 kts 142°
2026-04-18 12:14 46.93788 13.77043 24006 ft 426 kts 142°
2026-04-18 12:14 46.91438 13.79674 23485 ft 424 kts 142°
2026-04-18 12:14 46.89100 13.82286 23018 ft 420 kts 142°
2026-04-18 12:15 46.86814 13.84833 22561 ft 417 kts 142°
2026-04-18 12:15 46.84509 13.87392 22088 ft 414 kts 142°
2026-04-18 12:15 46.82221 13.89933 21621 ft 412 kts 142°
2026-04-18 12:15 46.79951 13.92458 21135 ft 409 kts 142°
2026-04-18 12:16 46.77684 13.94975 20648 ft 407 kts 142°
2026-04-18 12:16 46.75429 13.97476 20146 ft 406 kts 142°
2026-04-18 12:16 46.73194 13.99955 19636 ft 400 kts 142°
2026-04-18 12:16 46.71021 14.02360 19143 ft 384 kts 142°
2026-04-18 12:17 46.68936 14.04667 18664 ft 370 kts 142°
2026-04-18 12:17 46.66899 14.06923 18145 ft 366 kts 142°
2026-04-18 12:17 46.64874 14.09158 17664 ft 365 kts 142°
2026-04-18 12:17 46.62855 14.11384 17186 ft 363 kts 142°
2026-04-18 12:18 46.60845 14.13596 16710 ft 362 kts 142°
2026-04-18 12:18 46.58806 14.15736 16226 ft 361 kts 148°
2026-04-18 12:18 46.56608 14.17491 15751 ft 360 kts 152°
2026-04-18 12:18 46.54423 14.19180 15272 ft 359 kts 151°
2026-04-18 12:19 46.52222 14.20890 14795 ft 359 kts 151°
2026-04-18 12:19 46.50024 14.22604 14311 ft 359 kts 151°
2026-04-18 12:19 46.47824 14.24316 13806 ft 358 kts 151°
2026-04-18 12:19 46.45629 14.26021 13293 ft 357 kts 151°
2026-04-18 12:20 46.43441 14.27718 12806 ft 355 kts 151°
2026-04-18 12:20 46.41268 14.29404 12320 ft 353 kts 151°
2026-04-18 12:20 46.39107 14.31079 11840 ft 351 kts 151°
2026-04-18 12:20 46.36961 14.32742 11364 ft 349 kts 151°
2026-04-18 12:21 46.34825 14.34394 10880 ft 347 kts 152°
2026-04-18 12:21 46.32686 14.36046 10313 ft 345 kts 151°
2026-04-18 12:21 46.30645 14.37619 10178 ft 320 kts 151°
2026-04-18 12:21 46.28736 14.39089 9843 ft 305 kts 151°
2026-04-18 12:22 46.26899 14.40506 9560 ft 294 kts 151°
2026-04-18 12:22 46.25077 14.41911 9439 ft 297 kts 151°
2026-04-18 12:22 46.23330 14.43455 9018 ft 291 kts 141°
2026-04-18 12:22 46.21780 14.45277 8538 ft 284 kts 139°
2026-04-18 12:23 46.20282 14.47032 8066 ft 278 kts 140°
2026-04-18 12:23 46.18790 14.48780 7614 ft 273 kts 139°
2026-04-18 12:23 46.17326 14.50498 7140 ft 270 kts 139°
2026-04-18 12:23 46.15877 14.52189 6680 ft 266 kts 139°
2026-04-18 12:24 46.14443 14.53848 6215 ft 262 kts 140°
2026-04-18 12:24 46.13032 14.55472 5762 ft 257 kts 140°
2026-04-18 12:24 46.11680 14.57027 5633 ft 239 kts 140°
2026-04-18 12:24 46.10421 14.58473 5572 ft 223 kts 140°
2026-04-18 12:25 46.09244 14.59827 5514 ft 212 kts 140°
2026-04-18 12:25 46.08102 14.61144 5423 ft 208 kts 140°
2026-04-18 12:25 46.06979 14.62448 5342 ft 207 kts 137°
2026-04-18 12:25 46.06142 14.64058 5213 ft 203 kts 109°
2026-04-18 12:26 46.05952 14.66035 5074 ft 200 kts 81°
2026-04-18 12:26 46.06425 14.67887 4945 ft 198 kts 54°
2026-04-18 12:26 46.07445 14.69193 4810 ft 198 kts 26°
2026-04-18 12:26 46.08779 14.69661 4678 ft 200 kts 359°
2026-04-18 12:27 46.10118 14.69155 4543 ft 202 kts 330°
2026-04-18 12:27 46.11137 14.67782 4416 ft 203 kts 306°
2026-04-18 12:27 46.11946 14.66111 4301 ft 202 kts 306°
2026-04-18 12:27 46.12753 14.64494 4078 ft 196 kts 306°
2026-04-18 12:28 46.13287 14.63449 3901 ft 194 kts 307°
2026-04-18 12:28 46.14087 14.61893 3640 ft 191 kts 307°
2026-04-18 12:28 46.14871 14.60368 3394 ft 186 kts 307°
2026-04-18 12:28 46.15629 14.58896 3128 ft 178 kts 307°
2026-04-18 12:29 46.16341 14.57512 2906 ft 166 kts 307°
2026-04-18 12:29 46.16998 14.56233 2715 ft 154 kts 307°
2026-04-18 12:29 46.17626 14.55012 2514 ft 150 kts 307°
2026-04-18 12:29 46.18247 14.53802 2314 ft 150 kts 307°
2026-04-18 12:30 46.18870 14.52589 2117 ft 150 kts 307°
2026-04-18 12:30 46.19489 14.51382 1905 ft 149 kts 307°
2026-04-18 12:30 46.20102 14.50185 1697 ft 151 kts 307°
2026-04-18 12:30 46.20723 14.48967 1479 ft 150 kts 307°
2026-04-18 12:31 46.21353 14.47748 1297 ft 152 kts 307°
2026-04-18 12:31 46.21961 14.46561 1228 ft 134 kts 307°
2026-04-18 12:31 46.22418 14.45668 1247 ft 86 kts 307°
2026-04-18 12:31 46.22682 14.45152 1257 ft 52 kts 306°
2026-04-18 12:32 46.22885 14.44754 1273 ft 47 kts 306°
2026-04-18 12:32 46.23072 14.44390 1274 ft 43 kts 307°
2026-04-18 12:32 46.23230 14.44116 1283 ft 24 kts 328°
2026-04-18 12:32 46.23341 14.44082 1286 ft 16 kts 12°
2026-04-18 12:33 46.23401 14.44167 1286 ft 9 kts 76°
2026-04-18 12:33 46.23373 14.44268 1284 ft 13 kts 129°
2026-04-18 12:33 46.23306 14.44390 1280 ft 19 kts 126°
2026-04-18 12:33 46.23216 14.44566 1272 ft 24 kts 126°
2026-04-18 12:34 46.23109 14.44780 1266 ft 24 kts 126°
2026-04-18 12:34 46.23039 14.44911 1267 ft 14 kts 127°
2026-04-18 12:34 46.22973 14.45044 1262 ft 18 kts 126°
2026-04-18 12:34 46.22891 14.45201 1265 ft 19 kts 127°
2026-04-18 12:35 46.22852 14.45316 1263 ft 13 kts 75°
2026-04-18 12:35 46.22911 14.45386 1264 ft 11 kts 33°
2026-04-18 12:35 46.22932 14.45449 1258 ft 7 kts 85°
2026-04-18 12:35 46.22961 14.45495 1261 ft 2 kts 36°
2026-04-18 12:36 46.22971 14.45505 1262 ft 3 kts 36°
2026-04-18 12:36 46.22979 14.45513 1263 ft 0 kts 36°